Location: Kunchanapalle
(16.4623°N, 80.6176°E)
Time: 13:55:09
(UTC+00:00)

CZ-3A R/B - Pass Details

Date: 13 August 2020
Orbit: 136 x 8584 km, 24.2° (Epoch: 24 September)

Event Time Altitude Azimuth Distance (km) Brightness Sun altitude
Rises 14:59:17 0° 284° (WNW) 12,750 9.4 -26.9°
Reaches altitude 10° 15:13:41 10° 286° (WNW) 9,955 8.5 -30.0°
Maximum altitude 15:43:01 78° 13° (NNE) 1,940 3.8 -36.0°
Enters shadow 15:44:04 72° 63° (ENE) 1,813 3.6 -36.3°
